EW1732 Weather Reports


time (UTC)temp
F
wind
direction
speed
knots
gust
knots
rain 1hr
in
rain 24hr
in
rain mn
in
humidity
%
barometer
mb
20260506181439 60 133 0.0 2.6 0.00 0.03 0.03 91 1007.3
20260506180503 61 141 0.0 1.7 0.00 0.02 0.02 91 1007.5
20260506174418 61 183 0.0 1.7 0.00 0.02 0.02 89 1007.5
20260506173402 61 141 0.0 1.7 0.00 0.02 0.02 89 1007.3
20260506172425 62 124 0.0 1.7 0.00 0.02 0.02 88 1007.2
20260506171403 63 140 0.0 1.7 0.00 0.01 0.01 86 1007.4
20260506170420 63 145 0.0 1.7 0.00 0.01 0.01 85 1007.5
20260506165352 64 146 0.0 1.7 0.00 0.00 0.00 83 1007.8
20260506164345 65 138 0.0 0.9 0.00 0.00 0.00 81 1008.2
20260506162249 65 155 0.0 1.7 0.00 0.00 0.00 78 1008.4
20260506161304 65 160 0.0 1.7 0.00 0.00 0.00 79 1008.4
20260506160259 66 152 0.0 1.7 0.00 0.00 0.00 77 1008.5
20260506155312 66 153 0.0 1.7 0.00 0.00 0.00 78 1008.6
20260506154240 66 117 0.0 1.7 0.00 0.00 0.00 77 1008.7
20260506153220 67 131 0.0 1.7 0.00 0.00 0.00 76 1008.9
20260506152230 67 139 0.0 1.7 0.00 0.00 0.00 75 1008.7
20260506151213 67 134 0.0 1.7 0.00 0.00 0.00 76 1008.9
20260506150222 67 121 0.0 0.0 0.00 0.00 0.00 76 1008.8
20260506145213 66 153 0.0 1.7 0.00 0.00 0.00 76 1008.9
20260506144219 66 154 0.0 1.7 0.00 0.00 0.00 77 1008.9
20260506143202 66 88 0.0 2.6 0.00 0.00 0.00 77 1008.8
20260506142207 66 157 0.9 3.5 0.00 0.00 0.00 77 1008.9
20260506141202 66 131 0.9 3.5 0.00 0.00 0.00 77 1009.1
20260506140158 65 233 0.9 3.5 0.00 0.00 0.00 78 1008.9
20260506135142 65 115 0.9 2.6 0.00 0.00 0.00 78 1008.8
20260506134109 65 151 0.0 2.6 0.00 0.00 0.00 79 1008.9
20260506133131 64 165 0.9 2.6 0.00 0.00 0.00 79 1009.0
20260506132127 64 130 0.9 2.6 0.00 0.00 0.00 81 1008.8
20260506131117 63 165 0.0 1.7 0.00 0.00 0.00 82 1008.9
20260506130125 63 134 0.0 2.6 0.00 0.00 0.00 82 1008.9
20260506125105 62 129 0.0 2.6 0.00 0.00 0.00 83 1009.0
20260506124103 62 143 0.0 2.6 0.00 0.00 0.00 83 1009.0
20260506121918 62 267 0.0 1.7 0.00 0.00 0.00 83 1009.1
20260506120937 62 133 0.0 1.7 0.00 0.00 0.00 83 1009.5
20260506115950 62 53 0.0 1.7 0.00 0.00 0.00 84 1009.4
20260506114956 61 143 0.0 2.6 0.00 0.00 0.00 84 1009.3
20260506113943 61 115 0.0 2.6 0.00 0.00 0.00 85 1009.3
20260506112943 61 155 0.0 2.6 0.00 0.00 0.00 85 1009.2
20260506111952 60 201 0.0 2.6 0.00 0.00 0.00 86 1009.3
20260506104651 60 129 0.0 1.7 0.00 0.00 0.00 86 1009.6
20260506103716 59 240 0.0 0.9 0.00 0.00 0.00 87 1009.4
20260506102730 59 256 0.0 0.9 0.00 0.00 0.00 87 1009.2
20260506101701 59 142 0.0 2.6 0.00 0.00 0.00 88 1009.1
20260506100724 59 143 0.0 1.7 0.00 0.00 0.00 88 1009.3
20260506095702 59 115 0.0 0.9 0.00 0.00 0.00 88 1009.2
20260506094630 59 221 0.0 1.7 0.00 0.00 0.00 87 1009.1
20260506093612 59 197 0.0 0.9 0.00 0.00 0.00 88 1009.1
20260506092552 58 149 0.0 0.0 0.00 0.00 0.00 87 1009.2
20260506091533 59 245 0.0 0.0 0.00 0.00 0.00 87 1009.2
20260506085403 59 191 0.0 0.9 0.00 0.00 0.00 86 1009.4
20260506084330 59 307 0.0 0.0 0.00 0.00 0.00 86 1009.4
20260506083301 59 273 0.0 0.9 0.00 0.00 0.00 86 1009.6
20260506082323 58 142 0.0 0.0 0.00 0.00 0.00 85 1009.5
20260506081332 59 145 0.0 0.0 0.00 0.00 0.00 85 1009.6
20260506080319 59 189 0.0 0.0 0.00 0.00 0.00 84 1009.6
20260506072124 59 141 0.0 0.0 0.00 0.00 0.00 82 1009.7
20260506061834 60 131 0.0 0.0 0.00 0.00 0.00 79 1009.6
20260506050322 63 135 0.0 0.9 0.00 0.00 0.00 73 1010.0
20260506043227 63 150 0.0 0.9 0.00 0.00 0.00 72 1010.1
20260506042200 64 136 0.0 1.7 0.00 0.00 0.00 71 1010.0
20260506041141 64 185 0.0 3.5 0.00 0.00 0.00 70 1010.1
20260506040203 64 190 0.0 0.9 0.00 0.00 0.00 70 1010.0
20260506035138 65 107 0.0 2.6 0.00 0.00 0.00 69 1010.0
20260506034203 65 223 0.0 2.6 0.00 0.00 0.00 69 1010.0
20260506032037 65 128 0.0 1.7 0.00 0.00 0.00 68 1010.0
20260506031052 65 139 0.0 3.5 0.00 0.00 0.00 68 1009.8
20260506024845 65 146 0.0 2.6 0.00 0.00 0.00 68 1009.8
20260506022713 66 121 0.0 2.6 0.00 0.00 0.00 67 1009.8
20260506015446 66 145 0.0 5.2 0.00 0.00 0.00 65 1009.8
20260506014438 67 151 0.9 5.2 0.00 0.00 0.00 65 1009.7
20260506013419 67 257 0.0 2.6 0.00 0.00 0.00 64 1009.6
20260506012402 67 150 0.0 2.6 0.00 0.00 0.00 64 1009.4
20260506011422 68 144 0.0 2.6 0.00 0.00 0.00 63 1009.3
20260506010435 68 123 0.0 0.0 0.00 0.00 0.00 62 1009.2
20260506005420 68 140 0.0 0.0 0.00 0.00 0.00 61 1008.9
20260506004409 68 141 0.0 0.9 0.00 0.00 0.00 61 1009.0
20260506000028 69 155 0.0 0.9 0.00 0.00 0.00 61 1008.4
20260505235046 69 155 0.0 0.9 0.00 0.00 0.00 61 1008.3
20260505234041 70 136 0.0 0.9 0.00 0.00 0.00 60 1008.1
20260505231931 71 134 0.0 3.5 0.00 0.00 0.00 58 1007.9
20260505230940 71 173 0.0 3.5 0.00 0.00 0.00 57 1007.6
20260505225932 72 148 0.0 2.6 0.00 0.00 0.00 56 1007.6
20260505224930 72 150 0.9 2.6 0.00 0.00 0.00 55 1007.5
20260505223916 73 150 0.9 4.3 0.00 0.00 0.00 55 1007.4
20260505222934 74 149 0.9 4.3 0.00 0.00 0.00 53 1007.4
20260505221909 75 108 0.9 3.5 0.00 0.00 0.00 53 1007.2
20260505220838 75 143 0.0 3.5 0.00 0.00 0.00 52 1007.6
20260505215853 75 277 0.0 4.3 0.00 0.00 0.00 52 1007.5
20260505214906 76 139 0.9 4.3 0.00 0.00 0.00 52 1007.4
20260505213905 77 131 0.9 2.6 0.00 0.00 0.00 51 1007.3
20260505212857 77 265 0.9 4.3 0.00 0.00 0.00 51 1007.2
20260505210735 79 8 0.9 4.3 0.00 0.00 0.00 49 1006.9
20260505205726 79 137 0.9 5.2 0.00 0.00 0.00 49 1006.9
20260505204715 79 142 0.9 5.2 0.00 0.00 0.00 48 1006.9
20260505202554 79 119 0.9 6.1 0.00 0.00 0.00 49 1007.2
20260505201613 79 262 1.7 6.1 0.00 0.00 0.00 50 1007.3
20260505200548 80 134 0.9 5.2 0.00 0.00 0.00 48 1007.4
20260505195515 80 124 0.9 4.3 0.00 0.00 0.00 48 1007.4
20260505194508 80 243 1.7 4.3 0.00 0.00 0.00 47 1007.6
20260505193501 81 136 0.9 3.5 0.00 0.00 0.00 46 1007.6
20260505192426 81 160 0.9 7.0 0.00 0.00 0.00 49 1007.6
20260505191433 81 146 0.9 7.0 0.00 0.00 0.00 45 1007.5
20260505190424 81 148 0.9 3.5 0.00 0.00 0.00 44 1007.7
20260505185426 81 110 0.9 5.2 0.00 0.00 0.00 45 1007.9
20260505184411 81 134 1.7 5.2 0.00 0.00 0.00 45 1008.0
20260505183430 80 127 1.7 6.1 0.00 0.00 0.00 46 1008.2